Change the Weather History Date:

Friday, March 30, 2012

  Actual Average Record
Temperature  
Mean Temperature 58 °F -  
Max Temperature 65 °F 50 °F 89 °F (1986)
Min Temperature 51 °F 30 °F 8 °F (1964)
Degree Days  
Heating Degree Days 7    
Growing Degree Days 8 (Base 50)    
Moisture  
Dew Point 55 °F    
Average Humidity 94    
Maximum Humidity 100    
Minimum Humidity 75    
Precipitation  
Precipitation 0.02 in - - ()
Sea Level Pressure  
Sea Level Pressure 29.77 in    
Wind  
Wind Speed 5 mph (NE)    
Max Wind Speed 13 mph    
Max Gust Speed 18 mph    
Visibility 6 miles    
Events Rain    
Averages and records for this station are not official NWS values.
T = Trace of Precipitation, MM = Missing Value Source: NWS Daily Summary

Daily Weather History Graph

Daily Weather History Graph

Search for Another Location

Airport or City:

Trip Planner

Search our weather history database for the weather conditions in past years. The results will help you decide how hot, cold, wet, or windy it might be!

Date:

Astronomy

Mar. 30, 2012 Rise Set
Actual Time 7:01 AM CDT 7:40 PM CDT
Civil Twilight 6:33 AM CDT 8:08 PM CDT
Nautical Twilight 6:00 AM CDT 8:41 PM CDT
Astronomical Twilight 5:26 AM CDT 9:16 PM CDT
Moon 12:04 PM CDT (3/30) 2:21 AM CDT (3/30)
Length of Visible Light 13h 34m
Length of Day
12h 38m
Waxing Crescent, 49% of the Moon is Illuminated
Mar 30
Waxing Crescent
Mar 30
First Quarter
Apr 6
Full
Apr 13
Last Quarter
Apr 21
New

Hourly Weather History & Observations

Time (CDT) Temp. Dew Point Humidity Pressure Visibility Wind Dir Wind Speed Gust Speed Precip Events Conditions
12:15 AM 54.0 °F 54.0 °F 100% 29.66 in 10.0 mi East 4.6 mph - N/A   Scattered Clouds
12:35 AM 54.0 °F 54.0 °F 100% 29.67 in 10.0 mi Calm Calm - N/A   Clear
12:55 AM 53.6 °F 53.6 °F 100% 29.69 in 7.0 mi Calm Calm - N/A   Mostly Cloudy
1:15 AM 54.0 °F 54.0 °F 100% 29.70 in 10.0 mi Calm Calm - N/A   Overcast
1:35 AM 53.8 °F 53.8 °F 100% 29.72 in 7.0 mi NNW 12.7 mph 18.4 mph N/A   Overcast
1:55 AM 52.5 °F 52.5 °F 100% 29.72 in 10.0 mi North 6.9 mph - 0.01 in Rain Light Rain
2:15 AM 52.3 °F 52.3 °F 100% 29.72 in 10.0 mi NNE 6.9 mph - N/A   Overcast
2:35 AM 52.2 °F 52.2 °F 100% 29.72 in 7.0 mi NE 5.8 mph - N/A   Overcast
2:55 AM 51.8 °F 51.8 °F 100% 29.72 in 5.0 mi NE 6.9 mph - 0.01 in Rain Light Rain
3:15 AM 52.2 °F 52.2 °F 100% 29.72 in 7.0 mi ESE 3.5 mph - N/A   Overcast
3:35 AM 52.3 °F 52.3 °F 100% 29.72 in 7.0 mi SSE 3.5 mph - N/A   Overcast
3:55 AM 52.7 °F 52.7 °F 100% 29.72 in 7.0 mi Calm Calm - N/A   Overcast
4:15 AM 52.9 °F 52.9 °F 100% 29.72 in 7.0 mi NW 4.6 mph - N/A   Overcast
4:35 AM 52.7 °F 52.7 °F 100% 29.73 in 5.0 mi NW 3.5 mph - N/A   Overcast
4:55 AM 52.7 °F 52.7 °F 100% 29.72 in 5.0 mi Calm Calm - N/A   Overcast
5:15 AM 52.7 °F 52.7 °F 100% 29.71 in 5.0 mi Calm Calm - N/A   Overcast
5:35 AM 52.7 °F 52.7 °F 100% 29.72 in 5.0 mi Calm Calm - N/A   Overcast
6:35 AM 53.1 °F 53.1 °F 100% 29.72 in 5.0 mi Calm Calm - N/A   Overcast
6:55 AM 53.1 °F 53.1 °F 100% 29.73 in 5.0 mi WNW 3.5 mph - N/A   Overcast
7:15 AM 53.2 °F 53.2 °F 100% 29.74 in 5.0 mi WNW 5.8 mph - N/A   Overcast
7:55 AM 53.8 °F 53.8 °F 100% 29.77 in 5.0 mi WNW 4.6 mph - N/A   Overcast
8:15 AM 54.0 °F 54.0 °F 100% 29.77 in 5.0 mi WNW 6.9 mph - N/A   Overcast
8:35 AM 54.1 °F 54.1 °F 100% 29.77 in 5.0 mi NNW 4.6 mph - N/A   Overcast
8:55 AM 54.0 °F 54.0 °F 100% 29.78 in 5.0 mi WNW 4.6 mph - N/A   Overcast
9:15 AM 54.0 °F 54.0 °F 100% 29.79 in 5.0 mi NW 5.8 mph - N/A   Overcast
9:55 AM 54.1 °F 54.1 °F 100% 29.80 in 5.0 mi NNW 5.8 mph - N/A   Overcast
10:15 AM 54.5 °F 54.5 °F 100% 29.81 in 5.0 mi NNW 5.8 mph - N/A   Overcast
10:35 AM 54.5 °F 54.5 °F 100% 29.82 in 4.0 mi NW 4.6 mph - N/A   Overcast
10:55 AM 54.7 °F 54.7 °F 100% 29.82 in 4.0 mi NNW 5.8 mph - N/A   Overcast
11:15 AM 54.7 °F 54.7 °F 100% 29.83 in 4.0 mi North 4.6 mph - N/A   Overcast
11:35 AM 54.9 °F 54.9 °F 100% 29.83 in 3.0 mi NW 4.6 mph - N/A   Overcast
11:55 AM 55.2 °F 55.2 °F 100% 29.82 in 3.0 mi NW 3.5 mph - N/A   Overcast
12:15 PM 56.3 °F 56.3 °F 100% 29.83 in 4.0 mi NW 3.5 mph - N/A   Overcast
12:35 PM 58.6 °F 57.7 °F 97% 29.82 in 5.0 mi Calm Calm - N/A   Mostly Cloudy
12:55 PM 59.4 °F 57.4 °F 93% 29.82 in 5.0 mi North 3.5 mph - N/A   Mostly Cloudy
1:15 PM 59.9 °F 56.3 °F 88% 29.81 in 7.0 mi Calm Calm - N/A   Overcast
1:55 PM 62.1 °F 57.4 °F 85% 29.79 in 10.0 mi North 3.5 mph - N/A   Mostly Cloudy
2:15 PM 63.1 °F 57.7 °F 83% 29.79 in 10.0 mi East 4.6 mph - N/A   Mostly Cloudy
3:15 PM 65.1 °F 58.3 °F 78% 29.78 in 10.0 mi East 4.6 mph - N/A   Mostly Cloudy
3:35 PM 64.8 °F 57.4 °F 77% 29.78 in 10.0 mi Calm Calm - N/A   Scattered Clouds
3:55 PM 65.8 °F 58.1 °F 76% 29.78 in 10.0 mi SE 6.9 mph - N/A   Scattered Clouds
4:15 PM 64.6 °F 58.1 °F 79% 29.78 in 10.0 mi SE 5.8 mph - N/A   Mostly Cloudy
4:35 PM 65.7 °F 57.9 °F 76% 29.78 in 10.0 mi ESE 5.8 mph - N/A   Scattered Clouds
4:55 PM 65.5 °F 57.2 °F 75% 29.78 in 10.0 mi SSE 5.8 mph - N/A   Scattered Clouds
5:15 PM 64.9 °F 57.4 °F 76% 29.77 in 10.0 mi SE 6.9 mph - N/A   Clear
5:35 PM 64.4 °F 57.2 °F 77% 29.77 in 10.0 mi ESE 9.2 mph - N/A   Clear
5:55 PM 63.5 °F 57.4 °F 80% 29.77 in 7.0 mi ESE 9.2 mph - N/A   Clear
6:15 PM 63.0 °F 57.7 °F 83% 29.77 in 7.0 mi East 9.2 mph - N/A   Clear
6:35 PM 61.9 °F 57.4 °F 85% 29.78 in 7.0 mi ESE 10.4 mph - N/A   Clear
7:15 PM 59.9 °F 57.0 °F 90% 29.78 in 5.0 mi East 10.4 mph - N/A   Clear
7:35 PM 59.0 °F 56.7 °F 92% 29.79 in 4.0 mi East 9.2 mph - N/A   Scattered Clouds
7:55 PM 58.3 °F 56.5 °F 94% 29.80 in 7.0 mi East 8.1 mph - N/A   Scattered Clouds
8:15 PM 57.2 °F 56.1 °F 96% 29.81 in 4.0 mi East 6.9 mph - N/A   Clear
8:35 PM 57.2 °F 55.9 °F 96% 29.83 in 2.0 mi ESE 5.8 mph - N/A   Mostly Cloudy
8:55 PM 56.3 °F 55.8 °F 98% 29.81 in 2.0 mi ESE 11.5 mph - N/A Rain Light Rain
9:15 PM 55.4 °F 55.4 °F 100% 29.81 in 7.0 mi ESE 11.5 mph - N/A   Mostly Cloudy
9:35 PM 54.5 °F 54.5 °F 100% 29.81 in 7.0 mi ESE 10.4 mph - N/A   Scattered Clouds
9:55 PM 54.5 °F 54.5 °F 100% 29.81 in 5.0 mi ESE 11.5 mph - N/A   Scattered Clouds
10:15 PM 54.5 °F 54.5 °F 100% 29.81 in 5.0 mi ESE 10.4 mph - N/A   Mostly Cloudy
10:35 PM 54.0 °F 54.0 °F 100% 29.81 in 5.0 mi ESE 9.2 mph - N/A   Overcast
10:55 PM 53.8 °F 53.8 °F 100% 29.81 in 5.0 mi East 9.2 mph - N/A   Overcast
11:15 PM 53.6 °F 53.6 °F 100% 29.81 in 4.0 mi ESE 9.2 mph - N/A   Overcast
11:35 PM 53.4 °F 53.4 °F 100% 29.80 in 4.0 mi ESE 6.9 mph - N/A   Mostly Cloudy
11:55 PM 52.9 °F 52.9 °F 100% 29.81 in 4.0 mi East 9.2 mph - N/A   Scattered Clouds